Regional Weather Roundup
Issued by NWS

Home | Current Version | Previous Version | Text Only | Print | Product List | Glossary Off
Versions: 1 2 3 4 5 6 7 8 9 10 11 12 13 14 15 16 17 18 19 20 21 22 23 24 25 26 27 28 29 30 31 32 33 34 35 36 37 38 39 40 41 42 43 44 45 46 47 48 49 50

000
ASUS43 KMPX 251401
RWRMN
WEATHER ROUNDUP FOR MINNESOTA
NATIONAL WEATHER SERVICE TWIN CITIES/CHANHASSEN MN
900 AM CDT THU AUG 25 2016


NOTE: "FAIR" INDICATES FEW OR NO CLOUDS BELOW 12,000 FEET WITH NO
SIGNIFICANT WEATHER AND/OR OBSTRUCTIONS TO VISIBILITY. N/A MEANS
CURRENT SKY AND/OR WEATHER CONDITIONS ARE NOT AVAILABLE.

MNZ060>063-068>070-251500-
   Twin Cities Metro

CITY           SKY/WX    TMP DP  RH WIND       PRES   REMARKS
TWIN CITIES    MOSUNNY   66  58  75 W7        30.01S
ST PAUL        SUNNY     66  59  78 W8        30.01S
CRYSTAL        SUNNY     66  55  67 W8        30.00S
BLAINE         SUNNY     66  57  72 W12       30.01S
LAKEVILLE      SUNNY     64  57  77 W7        30.02F
EDEN PRAIRIE   SUNNY     66  58  75 W9        30.01S
LAKEVILLE      SUNNY     64  57  77 W7        30.02F
SOUTH ST PAUL  SUNNY     66  57  73 W8        30.01S
LAKE ELMO      FAIR      66  61  82 SW10      30.02S
$$
MNZ001>005-007-008-013>017-022>024-027-028-251500-
   Northwest Minnesota

CITY           SKY/WX    TMP DP  RH WIND       PRES   REMARKS
BEMIDJI        CLOUDY    56  53  88 SW10G18   29.94S
HALLOCK        CLOUDY    55  55 100 NW13G21   29.93R FOG
ROSEAU         CLOUDY    57  54  88 SW7       29.87S HAZE
WARROAD        CLOUDY    57  54  88 SW8       29.87S FOG
THIEF RVR FALL CLOUDY    57  55  93 W12       29.94R
CROOKSTON      CLOUDY    59  55  88 W16G22      N/A  FOG
FOSSTON        CLOUDY    55  54  94 SW15      29.96S
DETROIT LAKES  RAIN      54  52  94 W9        30.02R
MOORHEAD       CLOUDY    59  52  77 W13       30.02S
PARK RAPIDS    CLOUDY    58  53  84 W14       29.98S
MAHNOMEN       CLOUDY    56  53  88 W15       29.98R
$$
MNZ006-009>011-018-025>026-251500-
   North Central Minnesota

CITY           SKY/WX    TMP DP  RH WIND       PRES   REMARKS
BAUDETTE       CLOUDY    58  55  90 SW7       29.86S
FLAG ISLAND    CLOUDY    57  55  94 W5        29.83S FOG
INTL FALLS       N/A     57  54  89 SW8       29.87F
WASKISH        CLOUDY    61  55  82 W17       29.90S
BIG FORK       CLOUDY    57  54  88 W9        29.92S
LONGVILLE      MOSUNNY   61  54  77 W12G17    29.95F
GRAND RAPIDS   CLOUDY    59  54  83 W13       29.96S
CRANE LAKE     SUNNY     57  54  88 SW5       29.91S
ORR            PTSUNNY   59  52  77 W6        29.89S
COOK           MOSUNNY   61  55  82 W13       29.91F
WALKER         CLOUDY    57  53  85 W12G20    29.96S
$$
MNZ012-019>021-037-251500-
   Northeast Minnesota

CITY           SKY/WX    TMP DP  RH WIND       PRES   REMARKS
DULUTH         SUNNY     64  55  72 W10       29.94F
ELY            SUNNY     61  54  77 SW10      29.90F
HIBBING        SUNNY     59  54  83 W7        29.93S
EVELETH        SUNNY     60  53  78 SW10      29.93S
DULUTH HARBOR  SUNNY     66  57  72 SW9       29.94S
TWO HARBORS    SUNNY     68  57  68 W7        29.91F
SILVER BAY     SUNNY     66  55  68 SW5       29.90F
G MARAIS ARPRT SUNNY     63  52  67 W7        29.91F
$$
MNZ029>031-032-039>041-046>048-054>057-064-251500-
   West Central Minnesota

CITY           SKY/WX    TMP DP  RH WIND       PRES   REMARKS
FERGUS FALLS   CLOUDY    55  55 100 W9        30.05S
WHEATON        MOSUNNY   61  54  77 W10G16    30.08S
MORRIS         SUNNY     61  54  77 W14       30.06R
ALEXANDRIA     PTSUNNY   59  51  75 W14       30.05S
ELBOW LAKE     CLOUDY    56  53  88 NW13G21   30.05S
WADENA         CLOUDY    55  54  94 W8        30.00S
GLENWOOD       SUNNY     57  54  88 W18       30.05S
APPLETON       SUNNY     61  54  77 W13       30.06F
BENSON         SUNNY     61  52  72 NW15G21   30.06F
ORTONVILLE     SUNNY     59  52  77 W12G18    30.08S
MADISON        SUNNY     61  52  72 W10       30.08S
WILLMAR        FAIR      61  55  82 W9        30.07S
$$
MNZ033>034-036-042>043-049>051-058-059-251500-
   Central Minnesota

CITY           SKY/WX    TMP DP  RH WIND       PRES   REMARKS
ST CLOUD       SUNNY     63  55  75 W13       30.02R
SAUK CENTRE    FAIR      58  53  83 W13       30.04S
PAYNESVILLE    SUNNY     59  56  88 NW12G17   30.05S
AITKIN         MOSUNNY   64  52  63 W8        29.97R
PINE RIVER     PTSUNNY   57  54  88 W8G16     30.01S
BRAINERD       PTSUNNY   59  53  80 W14       30.00R
STAPLES        PTSUNNY   57  52  82 W10G16    30.01R
LONG PRAIRIE   FAIR      57  52  82 SW13      30.03S
LITTLE FALLS   SUNNY     59  52  77 W12       30.02R
LITCHFIELD     SUNNY     63  55  77 W9        30.05R
BUFFALO        MOSUNNY   64  53  69 W12       30.04R
MAPLE LAKE     SUNNY     64  56  76 W8        30.04R
HUTCHINSON     CLOUDY    62  57  82 W10       30.05S
$$
MNZ037-044-045-052-053-251500-
   East Central Minnesota

CITY           SKY/WX    TMP DP  RH WIND       PRES   REMARKS
PRINCETON      SUNNY     64  55  72 W8        30.01S
MORA           SUNNY     61  54  77 NW7       30.01S
CAMBRIDGE      SUNNY     66  54  63 W5        29.99S
RUSH CITY      SUNNY     64  56  77 W7        30.00R
MOOSE LAKE     SUNNY     63  55  77 W8        29.95F
HINCKLEY       FAIR      63  57  82 W7        29.99S
CLOQUET        SUNNY     63  52  67 W9        29.95F
MCGREGOR       SUNNY     63  55  77 W6        29.98S
$$
MNZ071>073-080-081-089-090-097-098-251500-
   Southwest Minnesota

CITY           SKY/WX    TMP DP  RH WIND       PRES   REMARKS
MONTEVIDEO     MOSUNNY   61  55  82 NW10      30.09S
GRANITE FALLS  MOSUNNY   60  55  85 W9        30.09S
CANBY          MOSUNNY   61  53  74 NW12      30.10S
MARSHALL       MOSUNNY   60  53  77 NW13      30.09S
REDWOOD FALLS  CLOUDY    61  54  77 NW10      30.07R
OLIVIA         SUNNY     59  54  82 NW8       30.06S
PIPESTONE      MOSUNNY   59  52  77 NW12      30.12R
WINDOM         MOSUNNY   63  54  72 NW8       30.10R
WORTHINGTON    MOSUNNY   61  55  81 NW6       30.11R
JACKSON        MOSUNNY   63  52  67 NW9       30.10R
TRACY          MOSUNNY   62  54  74 NW7       30.10S
SLAYTON        MOSUNNY   59  54  82 NW7       30.12R
$$
MNZ065>067-074>077-082>085-091>093-251500-
   South Central Minnesota

CITY           SKY/WX    TMP DP  RH WIND       PRES   REMARKS
MANKATO        SUNNY     63  55  77 NW8       30.06R
NEW ULM          N/A     63  55  77 NW13      30.06S
ST JAMES       SUNNY     59  52  77 NW9       30.09R
FAIRMONT       SUNNY     65  57  75 NW10      30.08R
GLENCOE        MOSUNNY   63  59  86 W8        30.04R
FARIBAULT      SUNNY     66  59  77 W8        30.04S
OWATONNA       SUNNY     64  59  82 SW5       30.05S
WASECA         SUNNY     63  57  82 W6        30.06S
ALBERT LEA     SUNNY     68  57  68 CALM      30.06S
$$
MNZ078>079-086>088-094>096-251500-
   Southeast Minnesota

CITY           SKY/WX    TMP DP  RH WIND       PRES   REMARKS
ROCHESTER      SUNNY     68  61  78 W6        30.06S
RED WING       SUNNY     68  61  77 W3        30.00F
STANTON        SUNNY     66  61  82 SW5       30.01F
DODGE CENTER   SUNNY     68  61  77 W6        30.05F
WINONA         SUNNY     70  61  73 NW6       30.03F
AUSTIN         SUNNY     68  57  68 W3        30.06S
PRESTON        SUNNY     67  59  76 NW5       30.07S
$$
ABBREVIATIONS USED IN REMARKS
   TC - TEMPERATURES IN CELSIUS
  WCI - WIND CHILL INDEX
   HX - HEAT INDEX
  VSB - VISIBILITY
$$




USA.gov is the U.S. government's official web portal to all federal, state and local government web resources and services.